Location: DARK SKY Beskydy - Park tmavé oblohy, www.darkskybeskydy.cz
(49.4926°N, 18.5016°E)
Time: 03:17:58
(UTC+02:00)

A-11 Canister half - Pass Details

Date: 01 March 2024
Orbit: 1513 x 1686 km, 47.2° (Epoch: 24 April)

Event Time Altitude Azimuth Distance (km) Brightness Sun altitude
Rises 23:08:32 0° 208° (SSW) 4,912 - -46.4°
Reaches altitude 10° 23:12:02 10° 200° (SSW) 3,936 - -46.5°
Maximum altitude 23:20:50 36° 139° (SE) 2,466 - -46.9°
Drops below altitude 10° 23:29:37 10° 78° (ENE) 3,928 - -47.2°
Exits shadow 23:30:29 - 76° (ENE) 4,163 11.3 -47.2°
Sets 23:33:05 0° 71° (ENE) 4,902 11.7 -47.3°
